[[{"header":{"parameterUnit":"m.s-1","parameterCategory":1,"la1":30.2991,"la2":30.254,"lo1":-89.0895,"lo2":-89.0444,"dy":0.0017,"dx":0.0017,"nx":28,"ny":28,"refTime":"2024-08-24T21:00:00:Z","depth":0,"parameterNumber":2,"parameterNumberName":"U-component_of_WINDS"},"data":[0,0,0,0,0,0,0,0,0,0,0,0,0,0,0,0,0,0,0,0,0,0,0,0,0,0,0,0,0,0,0,0,0,0,0,0,0,0,0,0,0,0,0,0,0,0,0,0,0,0,0,0,0,0,0,0,0,0,-1.5785,-1.5784,0,-1.5714,-1.5713,-1.5713,-1.5634,-1.5632,-1.5631,-1.563,-1.5558,-1.5557,-1.5556,0,0,0,0,0,0,0,0,0,0,0,0,0,-1.5854,-1.5853,-1.5785,-1.5784,-1.5783,-1.5714,-1.5713,-1.5712,-1.5634,-1.5632,-1.5631,-1.563,-1.5558,-1.5557,-1.5556,0,0,0,0,0,0,0,0,0,0,0,0,0,-1.5808,-1.5853,-1.5785,-1.5736,-1.5731,-1.5715,-1.5713,-1.5712,-1.5634,-1.5632,-1.5631,-1.5629,-1.5559,-1.5557,-1.5556,-1.5583,0,0,-1.5552,-1.5552,0,0,0,0,0,0,0,0,-1.581,-1.5805,-1.5744,-1.5739,-1.5733,-1.5681,-1.5711,-1.5669,-1.5635,-1.5671,-1.563,-1.5628,-1.56,-1.5596,-1.5586,-1.558,-1.5577,-1.5552,-1.5551,-1.5551,-1.5551,0,0,0,0,0,0,0,-1.5814,-1.5808,-1.5757,-1.5743,-1.5737,-1.5718,-1.5709,-1.5703,-1.5646,-1.5667,-1.5662,-1.5654,-1.5597,-1.5588,-1.5584,-1.5576,-1.5552,-1.5551,-1.555,-1.555,-1.5591,-1.5593,0,0,0,0,0,0,-1.5824,-1.5811,-1.5759,-1.5755,-1.5768,-1.5718,-1.5708,-1.57,-1.5646,-1.5636,-1.5656,-1.5651,-1.5591,-1.5585,-1.5581,-1.5611,-1.5551,-1.555,-1.5549,-1.5589,-1.5591,-1.5593,0,0,0,0,0,0,-1.5826,-1.582,-1.5762,-1.5781,-1.5772,-1.5719,-1.5709,-1.5699,-1.5689,-1.5637,-1.5627,-1.5656,-1.5589,-1.5583,-1.5584,-1.5607,-1.5549,-1.5548,-1.5587,-1.559,-1.5592,-1.567,0,0,0,0,0,0,-1.5828,-1.5821,-1.5831,-1.5782,-1.5772,-1.5766,-1.5711,-1.5699,-1.5687,-1.568,-1.5635,-1.5626,-1.5587,-1.5586,-1.5583,-1.5604,-1.5547,-1.5584,-1.5588,-1.5591,-1.5665,-1.5675,-1.5683,0,0,0,0,0,-1.5831,-1.5855,-1.5831,-1.5826,-1.5782,-1.5767,-1.5761,-1.5716,-1.5689,-1.5699,-1.5666,-1.5627,-1.5605,-1.5587,-1.5582,-1.5604,-1.5583,-1.5587,-1.5591,-1.5661,-1.5673,-1.5683,0,0,0,0,0,0,-1.5906,-1.5847,-1.5821,-1.5829,-1.5804,-1.5754,-1.5764,-1.573,-1.5712,-1.5706,-1.5651,-1.5641,-1.565,-1.5626,-1.5607,-1.5629,-1.5589,-1.5592,-1.5643,-1.5654,-1.5663,-1.5669,-1.5546,0,0,0,0,0,-1.5924,-1.5917,-1.5866,-1.5878,-1.5867,-1.5818,-1.581,-1.5778,-1.5749,-1.5738,-1.5705,-1.5679,-1.5666,-1.5659,-1.5644,-1.5661,-1.5651,-1.5674,-1.5684,-1.5691,-1.5695,-1.5705,-1.5715,-1.5607,-1.5607,-1.5607,0,0,-1.5961,-1.5927,-1.5926,-1.5893,-1.5869,-1.5864,-1.5809,-1.5805,-1.5801,-1.5737,-1.5736,-1.5712,-1.5679,-1.5689,-1.5692,-1.567,-1.5723,-1.5697,-1.5703,-1.5703,-1.571,-1.572,-1.573,-1.561,-1.5609,-1.5609,0,0,-1.6024,-1.5998,-1.6006,-1.5985,-1.595,-1.5918,-1.592,-1.5875,-1.5857,-1.5855,-1.5808,-1.5803,-1.5781,-1.5761,-1.5748,-1.5807,-1.5772,-1.5804,-1.5852,-1.5862,-1.5871,-1.5878,-1.5901,-1.591,-1.5808,-1.5808,-1.5808,0,-1.6074,-1.6063,-1.6015,-1.6014,-1.6002,-1.5945,-1.5954,-1.5935,-1.5898,-1.5891,-1.5868,-1.5842,-1.5816,-1.5821,-1.5836,-1.5827,-1.5829,-1.5809,-1.5874,-1.588,-1.5887,-1.5908,-1.5916,-1.5812,-1.5812,-1.5811,-1.5811,0,-1.6126,-1.612,-1.6131,-1.6098,-1.6086,-1.6091,-1.6044,-1.6039,-1.6009,-1.5979,-1.598,-1.5947,-1.5926,-1.5925,-1.5895,-1.5927,-1.5915,-1.5884,-1.5842,-1.5902,-1.5921,-1.5928,-1.5818,-1.5817,-1.5815,-1.5814,0,0,-1.6234,-1.6175,-1.618,-1.6166,-1.6125,-1.6119,-1.6122,-1.6102,-1.6099,-1.6076,-1.6078,-1.6063,-1.6034,-1.6019,-1.5986,-1.5995,-1.6047,-1.5962,-1.5961,-1.5981,-1.6083,-1.6107,-1.6117,-1.6023,-1.6024,-1.6025,-1.6086,0,-1.6291,-1.6292,-1.625,-1.6263,-1.6258,-1.6205,-1.6208,-1.6184,-1.6157,-1.6149,-1.6119,-1.611,-1.6072,-1.6064,-1.607,-1.6039,-1.6067,-1.6034,-1.6025,-1.6026,-1.6036,-1.6127,-1.6152,-1.6211,-1.6093,-1.6094,-1.6095,0,-1.6357,-1.6339,-1.6352,-1.6313,-1.6309,-1.6312,-1.6291,-1.6284,-1.6257,-1.6237,-1.6222,-1.6185,-1.6187,-1.6148,-1.615,-1.6129,-1.6123,-1.6108,-1.6109,-1.6107,-1.6064,-1.6128,-1.6228,-1.6238,-1.6106,-1.6105,-1.6104,0,-1.6436,-1.6415,-1.642,-1.6409,-1.6363,-1.6367,-1.6348,-1.6318,-1.631,-1.6292,-1.6287,-1.6269,-1.626,-1.6248,-1.6209,-1.6184,-1.6216,-1.6173,-1.6201,-1.6202,-1.621,-1.621,-1.6311,-1.6205,-1.6205,-1.6205,-1.6205,0,-1.6504,-1.6514,-1.6455,-1.6459,-1.6469,-1.6422,-1.6434,-1.641,-1.6385,-1.6384,-1.6337,-1.6337,-1.6284,-1.6279,-1.6248,-1.6256,-1.6252,-1.6237,-1.6228,-1.6241,-1.6243,-1.6237,-1.6232,-1.6207,-1.6207,-1.6206,-1.6206,0,-1.6594,-1.6554,-1.6557,-1.6514,-1.6504,-1.6514,-1.6478,-1.648,-1.6451,-1.645,-1.6448,-1.6403,-1.6394,-1.6354,-1.6335,-1.6315,-1.6334,-1.6316,-1.6343,-1.6338,-1.6368,-1.6366,-1.6469,-1.6481,-1.6367,-1.6368,-1.6369,0,-1.664,-1.6647,-1.6605,-1.6602,-1.6585,-1.6579,-1.6571,-1.6525,-1.6518,-1.6489,-1.6496,-1.6483,-1.6471,-1.6461,-1.6427,-1.6413,-1.6396,-1.6434,-1.6394,-1.6408,-1.6399,-1.6399,-1.64,-1.6442,-1.6444,-1.6445,-1.6446,0,-1.6727,-1.6708,-1.6697,-1.6681,-1.6672,-1.6657,-1.6639,-1.6639,-1.6589,-1.6584,-1.6575,-1.6566,-1.6548,-1.6537,-1.6519,-1.65,-1.6466,-1.6459,-1.6465,-1.6478,-1.6494,-1.6487,-1.6367,-1.6456,-1.6455,-1.6454,-1.6454,-1.6453,-1.6797,-1.6801,-1.6774,-1.6764,-1.6747,-1.6732,-1.6732,-1.6705,-1.6696,-1.6679,-1.6652,-1.6648,-1.6623,-1.6594,-1.6579,-1.6575,-1.6555,-1.6563,-1.6565,-1.6568,-1.6576,-1.6494,-1.6571,-1.6571,-1.6571,-1.657,-1.657,0,-1.6882,-1.6863,-1.6855,-1.6832,-1.6825,-1.6793,-1.6773,-1.6769,-1.6766,-1.6745,-1.6735,-1.6726,-1.6716,-1.6683,-1.667,-1.6674,-1.6658,-1.6672,-1.6672,-1.6669,-1.6593,-1.659,-1.6686,-1.6686,-1.6686,-1.6686,-1.6686,-1.6685,-1.6926,-1.6933,-1.6911,-1.691,-1.689,-1.6885,-1.6876,-1.6863,-1.6847,-1.6839,-1.6831,-1.6809,-1.6784,-1.677,-1.676,-1.675,-1.6748,-1.6768,-1.6754,-1.6685,-1.6673,-1.6663,-1.666,-1.6768,-1.6768,-1.6829,-1.683,-1.683]},{"header":{"parameterUnit":"m.s-1","parameterCategory":1,"la1":30.2991,"la2":30.254,"lo1":-89.0895,"lo2":-89.0444,"dy":0.0017,"dx":0.0017,"nx":28,"ny":28,"refTime":"2024-08-24T21:00:00:Z","depth":0,"parameterNumber":3,"parameterNumberName":"V-component_of_WINDS"},"data":[0,0,0,0,0,0,0,0,0,0,0,0,0,0,0,0,0,0,0,0,0,0,0,0,0,0,0,0,0,0,0,0,0,0,0,0,0,0,0,0,0,0,0,0,0,0,0,0,0,0,0,0,0,0,0,0,0,0,0.8727,0.8728,0,0.879,0.8791,0.8792,0.8832,0.8832,0.8832,0.8832,0.8894,0.8896,0.8897,0,0,0,0,0,0,0,0,0,0,0,0,0,0.8639,0.864,0.8727,0.8728,0.8729,0.879,0.8791,0.8792,0.8831,0.8832,0.8832,0.8832,0.8894,0.8895,0.8897,0,0,0,0,0,0,0,0,0,0,0,0,0,0.8687,0.864,0.8727,0.8756,0.8759,0.879,0.8791,0.8792,0.8831,0.8832,0.8832,0.8832,0.8893,0.8895,0.8897,0.8904,0,0,0.8904,0.8905,0,0,0,0,0,0,0,0,0.8684,0.869,0.8751,0.8754,0.8758,0.8804,0.8783,0.8829,0.8831,0.8804,0.8832,0.8833,0.8864,0.8868,0.8879,0.8906,0.8909,0.8904,0.8905,0.8906,0.8907,0,0,0,0,0,0,0,0.8681,0.8687,0.8752,0.8752,0.8756,0.8765,0.8772,0.8792,0.8831,0.8806,0.8809,0.8816,0.8865,0.8877,0.8881,0.891,0.8904,0.8906,0.8907,0.8908,0.8944,0.8944,0,0,0,0,0,0,0.8673,0.8684,0.875,0.8754,0.8721,0.8766,0.8774,0.8788,0.8831,0.8838,0.8816,0.8818,0.8873,0.8878,0.8883,0.8892,0.8906,0.8908,0.891,0.8944,0.8944,0.8944,0,0,0,0,0,0,0.8671,0.8679,0.8748,0.872,0.873,0.8767,0.8783,0.8789,0.8801,0.8838,0.8845,0.8821,0.8874,0.888,0.8898,0.8895,0.8909,0.8911,0.8945,0.8944,0.8944,0.8911,0,0,0,0,0,0,0.8668,0.8678,0.8681,0.872,0.8731,0.8762,0.8783,0.879,0.8805,0.8808,0.8844,0.8851,0.8874,0.8895,0.89,0.8898,0.8913,0.8945,0.8945,0.8944,0.8913,0.8909,0.8907,0,0,0,0,0,0.8665,0.8669,0.8681,0.8689,0.8736,0.8762,0.8768,0.8796,0.8805,0.8808,0.8832,0.885,0.8895,0.8896,0.8903,0.8901,0.8946,0.8945,0.8944,0.8914,0.891,0.8907,0,0,0,0,0,0,0.8628,0.8675,0.8688,0.8706,0.873,0.8769,0.8774,0.8791,0.8813,0.8815,0.8848,0.8856,0.887,0.8888,0.8888,0.8909,0.8922,0.8923,0.8897,0.8894,0.8891,0.8886,0.8915,0,0,0,0,0,0.8622,0.864,0.868,0.8691,0.8702,0.8736,0.8748,0.8767,0.8793,0.8803,0.8829,0.8852,0.8872,0.8884,0.8904,0.8915,0.8923,0.8918,0.8915,0.8912,0.8912,0.8918,0.8916,0.8941,0.8941,0.8941,0,0,0.861,0.8637,0.8647,0.8684,0.8705,0.8722,0.8744,0.8761,0.8773,0.8806,0.8824,0.8843,0.8872,0.8886,0.8894,0.8902,0.8907,0.8911,0.8909,0.891,0.8917,0.8915,0.8913,0.8941,0.8941,0.8941,0,0,0.8596,0.8619,0.863,0.8651,0.8682,0.8704,0.8707,0.8743,0.8757,0.8777,0.8801,0.8816,0.8849,0.8868,0.8882,0.8874,0.8891,0.8879,0.8864,0.887,0.8868,0.8866,0.8862,0.886,0.8879,0.8879,0.8879,0,0.8576,0.8603,0.8633,0.8649,0.8664,0.8695,0.8705,0.8724,0.876,0.8769,0.8777,0.8819,0.884,0.8859,0.8857,0.8868,0.887,0.8875,0.8866,0.8864,0.8863,0.886,0.8858,0.8877,0.8877,0.8878,0.8878,0,0.8577,0.8595,0.86,0.8634,0.865,0.8663,0.8695,0.8707,0.8724,0.8745,0.8764,0.879,0.8816,0.8822,0.8839,0.8843,0.8846,0.886,0.8873,0.8859,0.8856,0.8855,0.8875,0.8875,0.8876,0.8876,0,0,0.8541,0.8592,0.8593,0.8609,0.8645,0.8659,0.8673,0.8699,0.8708,0.8732,0.8743,0.877,0.8782,0.8798,0.8818,0.8823,0.8813,0.8836,0.8837,0.883,0.8817,0.8806,0.8804,0.8825,0.8825,0.8825,0.8814,0,0.8532,0.8559,0.8586,0.8603,0.862,0.8648,0.866,0.8683,0.8703,0.8719,0.8741,0.8759,0.8775,0.8784,0.879,0.8813,0.8811,0.8814,0.8835,0.8835,0.8826,0.8803,0.8792,0.878,0.8814,0.8814,0.8813,0,0.8524,0.8547,0.8565,0.8599,0.8607,0.8618,0.8642,0.8658,0.8684,0.8698,0.8715,0.8736,0.8751,0.8763,0.8783,0.8785,0.8795,0.8807,0.8808,0.881,0.8823,0.8803,0.8778,0.8775,0.8812,0.8812,0.8812,0,0.8495,0.853,0.8545,0.8558,0.8598,0.8604,0.8621,0.8648,0.8661,0.8683,0.8691,0.8714,0.8726,0.8743,0.8769,0.8776,0.8786,0.8801,0.8796,0.8796,0.8796,0.8796,0.8771,0.8805,0.8805,0.8805,0.8805,0,0.8481,0.8491,0.8533,0.8542,0.8553,0.8584,0.8595,0.8614,0.8637,0.865,0.8677,0.8688,0.8722,0.8737,0.8757,0.877,0.8775,0.8786,0.8791,0.8783,0.8782,0.8789,0.879,0.8804,0.8804,0.8804,0.8804,0,0.845,0.8479,0.8497,0.8534,0.8543,0.855,0.8581,0.859,0.8611,0.8627,0.8632,0.8665,0.8684,0.8712,0.8739,0.8753,0.8762,0.8771,0.8753,0.8756,0.8749,0.8749,0.8728,0.8726,0.8762,0.8761,0.8761,0,0.8439,0.8447,0.8484,0.8495,0.8511,0.8528,0.8541,0.8572,0.8585,0.8615,0.862,0.8641,0.8659,0.8688,0.8714,0.8734,0.8743,0.8734,0.8746,0.8738,0.8742,0.874,0.874,0.8731,0.873,0.873,0.873,0,0.8415,0.8429,0.8447,0.8471,0.8486,0.8506,0.8527,0.8534,0.8568,0.8581,0.8601,0.8615,0.8643,0.8663,0.8687,0.8703,0.8721,0.8726,0.8726,0.8717,0.8706,0.871,0.8744,0.8726,0.8726,0.8727,0.8727,0.8727,0.8393,0.8401,0.8428,0.8448,0.8467,0.8485,0.8496,0.8518,0.8535,0.856,0.8577,0.8596,0.8621,0.8655,0.867,0.8684,0.8692,0.8693,0.8692,0.8692,0.8688,0.8704,0.8689,0.8689,0.8689,0.869,0.869,0,0.837,0.8388,0.8406,0.8434,0.8449,0.8466,0.849,0.8501,0.8517,0.8539,0.8557,0.8579,0.8598,0.8625,0.8646,0.8652,0.8661,0.8656,0.8656,0.8659,0.8681,0.8678,0.8649,0.8649,0.8649,0.8649,0.8649,0.8649,0.8359,0.8373,0.839,0.8413,0.8432,0.845,0.8462,0.8479,0.8497,0.852,0.8536,0.8554,0.8578,0.8601,0.8619,0.8626,0.8632,0.8624,0.8634,0.8654,0.8657,0.8661,0.8659,0.8626,0.8626,0.8611,0.8611,0.8611]}]]